Regional Weather Roundup
Issued by NWS

Home | Current Version | Previous Version | Graphics & Text | Print | Product List | Glossary On
Versions: 1 2 3 4 5 6 7 8 9 10 11 12 13 14 15 16 17 18 19 20 21 22 23 24 25 26 27
000
ASUS45 KSLC 182310
RWRUT

UTAH REGIONAL WEATHER ROUNDUP
NATIONAL WEATHER SERVICE SALT LAKE CITY UT
400 PM MST WED JAN 18 2017

UTZ001>011-023>025-190000-

NORTHERN UTAH

CITY           SKY/WX    TMP DP  RH WIND       PRES   REMARKS
BRIGHAM CITY     N/A     24  16  69 NW6       29.95F WCI  17
DUGWAY         PTSUNNY   28  24  84 SW2       29.96F FOG
HILL AFB       SUNNY     29  17  61 E7        29.89F WCI  22
LOGAN          SUNNY     14   8  77 N8        29.96F HAZE    WCI   3
OGDEN          SUNNY     26  18  71 E3        29.90F HAZE
SALT LAKE CITY MOSUNNY   31  22  69 N5        29.94F WCI  26
TOOELE VALLEY  PTSUNNY   27  23  86 CALM      29.95F FOG
WENDOVER       CLOUDY    25  18  74 E5        29.99F WCI  19
HEBER CITY     SUNNY     25  12  58 CALM      29.93S
WEST JORDAN    SUNNY     31  27  84 CALM      29.94F

$$

UTZ011>015-024>027-190000-

CENTRAL/NORTHEAST UTAH

CITY           SKY/WX    TMP DP  RH WIND       PRES   REMARKS
PROVO AIRPORT  MOSUNNY   32  19  59 CALM      29.96F
MOAB/CANYONLAN SUNNY     41  27  57 N7        29.99F
DELTA          SUNNY     41  23  48 MISG      29.93F
PRICE          SUNNY     31  12  45 CALM      30.00F
RICHFIELD      SUNNY     43  23  45 NE1       29.94F
ROOSEVELT      SUNNY     21  10  63 CALM      30.10F
VERNAL         CLOUDY    18  11  74 SW3       30.08F

$$

UTZ013>016-019>022-027-190000-

SOUTHERN UTAH

CITY           SKY/WX    TMP DP  RH WIND       PRES   REMARKS
BRYCE CANYON   SUNNY     33  23  66 SE12      29.99F WCI  24
CEDAR CITY     SUNNY     45  19  35 SW20G29   29.95S
MILFORD        MOSUNNY   47  24  40 S24       29.91F
ST GEORGE      CLEAR     50  30  46 CALM      30.03F
HANKSVILLE     SUNNY     43  25  49 MISG      30.04F
KANAB          SUNNY     52  28  40 S10       30.04F
BLANDING       SUNNY     42  30  61 SW8       30.07F

$$

REGIONAL REPORTS     COLORADO/ARIZONA

CITY           SKY/WX    TMP DP  RH WIND       PRES   REMARKS
CRAIG, CO      CLOUDY    18  12  77 SW5       30.00F WCI  11
GRAND JUNCTION SUNNY     43  31  62 W8        30.00F
RIFLE, CO      SUNNY     42  25  50 W9        29.98F
MONTROSE, CO   SUNNY     43  27  53 NW8       30.00F
CORTEZ, CO     MOSUNNY   41  29  62 NW8       30.02S
COLORADO CITY    N/A     52  23  32 W12       30.05R
PAGE, AZ       SUNNY     48  26  42 E3        30.00F
GRAND CANYON   SUNNY     46  19  34 SW16G24   30.04F
KINGMAN, AZ    SUNNY     56  21  25 SW14      30.01F
FLAGSTAFF, AZ  SUNNY     42  25  50 SW10      30.06F

$$

REGIONAL REPORTS    NEVADA/IDAHO/WYOMING

CITY           SKY/WX    TMP DP  RH WIND       PRES   REMARKS
LAS VEGAS, NV  PTSUNNY   55  22  27 NE6       29.97F
ELY, NY        CLOUDY    37  21  52 SE7       29.91R WCI  32
ELKO, NV       CLOUDY    27  14  58 E3        29.91S
POCATELLO, ID  CLOUDY    23  14  68 NE6       29.92F WCI  16
BURLEY, ID     CLOUDY    31  20  63 NE10      29.86R WCI  22
FORT BRIDGER,    N/A     24  14  66 S7        29.91F WCI  16
EVANSTON, WY   CLOUDY    27   9  46 CALM      29.90F
ROCK SPRINGS,  CLOUDY    15   6  67 CALM      29.91F
KEMMERER, WY     N/A     30   9  40 CALM      29.89F

$$




USA.gov is the U.S. government's official web portal to all federal, state and local government web resources and services.